Terminal Aerodrome Forecast
Issued by NWS

Home | Current Version | Previous Version | Graphics & Text | Print | Product List | Glossary On
Versions: 1 2 3 4 5 6 7 8 9 10 11 12 13 14 15 16 17 18 19 20 21
000
FTUS45 KGGW 270400 AAA
TAFSDY
TAF AMD
KSDY 270425Z 2704/2724 VRB05KT P6SM VCSH OVC060
     FM270700 11010KT 5SM -SN OVC018
     FM271200 13008KT 5SM -FZRASN OVC026
     FM271800 17008KT P6SM VCSH OVC023
      AMD LTD TO CLD VIS AND WIND=

USA.gov is the U.S. government's official web portal to all federal, state and local government web resources and services.